PROBA-1 1 26958U 01049B 26132.88876668 .00001527 00000+0 10243-3 0 9992 2 26958 97.9616 140.1912 0053765 241.6951 117.8845 15.07362171338306 CUTE-1 (CO-55) 1 27844U 03031E 26132.77239405 .00000191 00000+0 10155-3 0 9998 2 27844 98.6747 141.7761 0008348 291.1479 68.8807 14.24313071186638 CUBESAT XI-IV (CO-57) 1 27848U 03031J 26132.46199470 .00000167 00000+0 92608-4 0 9992 2 27848 98.6779 141.2109 0008495 313.1821 46.8647 14.23601104186293 APRIZESAT 4 1 35684U 09041D 26132.78738287 .00000483 00000+0 64189-4 0 9990 2 35684 98.1416 207.4028 0044628 77.0101 283.6090 14.83826586906116 APRIZESAT 3 1 35686U 09041F 26132.65353171 .00001007 00000+0 92065-4 0 9990 2 35686 98.2025 284.1881 0061620 183.1598 176.9242 14.96122419911065 PROBA-2 1 36037U 09059B 26132.33945913 .00000116 00000+0 37676-4 0 9993 2 36037 98.2450 316.1901 0013982 36.3349 323.8795 14.54846791876312 APRIZESAT 5 1 37792U 11044E 26132.80794262 .00000547 00000+0 76329-4 0 9996 2 37792 98.2445 64.8509 0053503 115.9719 244.7018 14.80998534793559 APRIZESAT 6 1 37793U 11044F 26132.70579853 .00000359 00000+0 58385-4 0 9996 2 37793 98.2385 42.4787 0042639 197.8170 184.1452 14.76865669791915 PROBA-V 1 39159U 13021A 26132.83610264 .00000041 00000+0 35941-4 0 9998 2 39159 98.3570 113.1922 0003188 225.0219 135.0703 14.23589250676086 APRIZESAT 7 1 39416U 13066A 26132.86616637 .00000815 00000+0 86337-4 0 9990 2 39416 97.7688 86.6009 0035079 330.8226 29.1032 14.91481029675966 APRIZESAT 8 1 39425U 13066K 26132.82845023 .00000713 00000+0 83168-4 0 9995 2 39425 97.8202 80.7970 0047069 43.7081 316.7847 14.87573791674413 BUGSAT-1 (TITA) 1 40014U 14033E 26132.84148093 .00003137 00000+0 16960-3 0 9999 2 40014 98.0408 223.3369 0026932 303.0416 56.8228 15.15213057650481 SAUDISAT 4 1 40016U 14033G 26132.68011635 .00000467 00000+0 68374-4 0 9994 2 40016 97.7536 280.0536 0044690 187.1060 172.9524 14.79490447640829 APRIZESAT 9 1 40018U 14033J 26132.64107544 .00000275 00000+0 48213-4 0 9994 2 40018 97.9007 266.7186 0065145 315.4618 44.1365 14.74171498638323 APRIZESAT 10 1 40019U 14033K 26132.82027440 .00000257 00000+0 48202-4 0 9999 2 40019 97.9599 260.5793 0079417 27.6663 332.8735 14.70851975637053 TECHDEMOSAT-1 (TDS-1) 1 40076U 14037H 26132.84246468 .00005980 00000+0 34547-3 0 9995 2 40076 98.3810 121.5719 0007297 41.4652 318.7128 15.12731199642888 TECHNOSAT 1 42829U 17042E 26132.80781515 .00001616 00000+0 11860-3 0 9990 2 42829 97.4234 291.8269 0017044 210.9026 149.1199 15.04729636481380 FLYING LAPTOP 1 42831U 17042G 26132.85397009 .00002499 00000+0 20014-3 0 9990 2 42831 97.4529 289.7867 0017688 242.8890 117.0531 15.00908794481156 HAWK-A 1 43765U 18099H 26132.57367957 .00004610 00000+0 18879-3 0 9991 2 43765 97.3945 185.2812 0036363 53.0390 307.4168 15.24185651407673 HAWK-B 1 43794U 18099AN 26132.09299184 .00004338 00000+0 18795-3 0 9990 2 43794 97.3994 184.2969 0033872 71.7470 288.7448 15.22393464407548 HAWK-C 1 43799U 18099AT 26132.56425517 .00005865 00000+0 21482-3 0 9991 2 43799 97.3922 186.0115 0042149 53.4596 307.0512 15.27554694408479 SALSAT 1 46495U 20068K 26132.49064809 .00005145 00000+0 18390-3 0 9996 2 46495 97.8859 133.3988 0011544 72.3805 287.8693 15.29261249309906 HAWK-2C 1 47502U 21006CT 26132.08935112 .00004015 00000+0 12352-3 0 9995 2 47502 97.2310 177.1263 0005934 344.6756 15.4307 15.34221938293962 HAWK-2A 1 47505U 21006CW 26132.09218012 .00003968 00000+0 12204-3 0 9994 2 47505 97.2353 177.7853 0005621 350.0637 10.0494 15.34233714293968 HAWK-2B 1 47508U 21006CZ 26132.08906269 .00004556 00000+0 13963-3 0 9991 2 47508 97.2225 176.1733 0006034 346.8332 13.2753 15.34265421293966 HAWK-3B 1 48931U 21059BE 26132.77857851 .00028735 00000+0 27453-3 0 9992 2 48931 97.6692 326.2196 0005982 102.8009 257.3919 15.66684967272307 HAWK-3C 1 48948U 21059BX 26132.52279664 .00028910 00000+0 27628-3 0 9992 2 48948 97.6819 331.5637 0006445 102.8018 257.3962 15.66672600272264 HAWK-3A 1 48957U 21059CG 26132.77814596 .00029511 00000+0 28184-3 0 9994 2 48957 97.6760 329.0769 0006196 102.7067 257.4885 15.66687306272302 HAWK-5C 1 52754U 22057Y 26132.81137880 .00012476 00000+0 22354-3 0 9997 2 52754 97.6543 290.2497 0004684 186.1477 173.9717 15.50094983220865 HAWK-5B 1 52756U 22057AA 26132.81121630 .00012547 00000+0 22479-3 0 9992 2 52756 97.6553 288.5939 0005030 182.2377 177.8852 15.50094772220860 HAWK-5A 1 52757U 22057AB 26132.81099102 .00012546 00000+0 22478-3 0 9999 2 52757 97.6549 289.4270 0005171 185.1044 175.0154 15.50093868220863 HAWK-6B 1 55324U 23011A 26132.37444547 .00002625 00000+0 11878-3 0 9990 2 55324 40.4976 200.9027 0002471 162.5231 197.5663 15.22607465182382 HAWK-6C 1 55326U 23011C 26132.57056896 .00002781 00000+0 12534-3 0 9993 2 55326 40.4967 196.6008 0002580 147.9880 212.1086 15.22609110182429 HAWK-6A 1 55327U 23011D 26132.24266197 .00002707 00000+0 12223-3 0 9998 2 55327 40.4976 200.1342 0002201 143.8018 216.2940 15.22607746182371 HAWK-7A 1 56191U 23054P 26132.66218304 .00003496 00000+0 13474-3 0 9993 2 56191 97.2748 20.9044 0004013 135.5766 224.5795 15.26972706171605 HAWK-7B 1 56193U 23054R 26132.39998971 .00003356 00000+0 12947-3 0 9999 2 56193 97.2775 18.9000 0003028 135.6790 224.4692 15.26969716171566 HAWK-7C 1 56200U 23054Y 26132.66199970 .00003461 00000+0 13341-3 0 9996 2 56200 97.2749 19.9353 0003463 129.2561 230.8986 15.26977144171602